Regional Weather Roundup
Issued by NWS

Home | Current Version | Previous Version | Graphics & Text | Print | Product List | Glossary On
Versions: 1 2 3 4 5 6 7 8 9 10 11 12 13 14 15 16 17 18 19 20 21 22 23 24 25 26 27 28 29 30 31 32 33 34 35 36 37 38 39 40 41 42 43 44 45 46 47 48 49 50
000
ASUS43 KMPX 230910
RWRMN
WEATHER ROUNDUP FOR MINNESOTA
NATIONAL WEATHER SERVICE TWIN CITIES/CHANHASSEN MN
400 AM CDT THU OCT 23 2014


NOTE: "FAIR" INDICATES FEW OR NO CLOUDS BELOW 12,000 FEET WITH NO
SIGNIFICANT WEATHER AND/OR OBSTRUCTIONS TO VISIBILITY. N/A MEANS
CURRENT SKY AND/OR WEATHER CONDITIONS ARE NOT AVAILABLE.

MNZ060>063-068>070-231000-
   Twin Cities Metro

CITY           SKY/WX    TMP DP  RH WIND       PRES   REMARKS
TWIN CITIES    CLOUDY    50  49  96 SE7       30.00F
ST PAUL        LGT RAIN  50  48  93 SE6       30.02S FOG
CRYSTAL        CLOUDY    53  50  89 S9        29.98F
BLAINE         RAIN      52  52 100 S9        29.98F
LAKEVILLE      CLOUDY    50  46  87 S5        30.00F
EDEN PRAIRIE   CLOUDY    52  50  93 S8        29.98F
SOUTH ST PAUL  LGT RAIN  51  48  88 S5        30.00S
LAKE ELMO      HVY RAIN  50  46  87 S6        30.02S
$$
MNZ001>005-007-008-013>017-022>024-027-028-231000-
   Northwest Minnesota

CITY           SKY/WX    TMP DP  RH WIND       PRES   REMARKS
BEMIDJI        PTCLDY    48  48  99 S7        29.88F FOG
HALLOCK        CLEAR     45  43  93 S8        29.80S
ROSEAU         PTCLDY    48  45  87 S9        29.82S
WARROAD        CLOUDY    50  46  87 S5        29.82F
THIEF RVR FALL CLEAR     45  45 100 S7        29.85S
CROOKSTON      CLOUDY    46  46 100 S7        29.86S
FOSSTON        CLEAR     46  45  93 S10       29.88S
DETROIT LAKES  CLEAR     48  46  93 S6        29.91F
MOORHEAD       CLEAR     45  45 100 S8        29.90S
PARK RAPIDS    CLOUDY    51  51 100 SW6       29.91F
MAHNOMEN       FAIR      47  46  97 S10       29.88S
$$
MNZ006-009>011-018-025>026-231000-
   North Central Minnesota

CITY           SKY/WX    TMP DP  RH WIND       PRES   REMARKS
BAUDETTE       MOCLDY    49  46  90 S8        29.85F
FLAG ISLAND    MOCLDY    48  48 100 S8        29.80F FOG
INTL FALLS     CLOUDY    48  46  93 VRB6      29.88F
WASKISH        PTCLDY    50  48  93 CALM      29.86F
BIG FORK       CLOUDY    48  46  93 S6        29.91F
LONGVILLE      CLOUDY    50  50 100 S3        29.92F FOG
GRAND RAPIDS   CLOUDY    48  45  87 S8        29.93S
CRANE LAKE     DRIZZLE   45  45 100 S5        29.93
ORR            LGT RAIN  46  43  87 SE6       29.90F
COOK           CLOUDY    46  45  93 S6        29.93F
WALKER         CLOUDY    50  50  98 SW3       29.90F
$$
MNZ012-019>021-037-231000-
   Northeast Minnesota

CITY           SKY/WX    TMP DP  RH WIND       PRES   REMARKS
DULUTH         LGT RAIN  51  39  63 S8        29.96F
ELY            CLOUDY    48  37  66 S10G16    29.95F
HIBBING        LGT RAIN  47  44  90 S5        29.94F
EVELETH        RAIN      46  41  81 S6        29.96S
DULUTH HARBOR  CLOUDY    54  43  66 S5        29.98F
TWO HARBORS    CLOUDY    48  32  53 CALM      29.96F
SILVER BAY     MOCLDY    45  39  81 CALM      29.97F
GRAND MARAIS     N/A     48  42  80 NE5       30.02F
G MARAIS ARPRT MOCLDY    43  36  75 SE5       30.01F
$$
MNZ029>031-032-039>041-046>048-054>057-064-231000-
   West Central Minnesota

CITY           SKY/WX    TMP DP  RH WIND       PRES   REMARKS
FERGUS FALLS   FOG       45  43  93 S6        29.93F VSB 1/4
WHEATON        CLEAR     45  43  93 SW7       29.94F
MORRIS         FOG       45  45 100 S6        29.94S VSB<1/4
ALEXANDRIA     FOG       51  51 100 SW9       29.95F VSB 1/2
ELBOW LAKE     FOG       45  45 100 S7        29.93F VSB 1/4
WADENA         FOG       46  46 100 CALM      29.92F VSB 1/4
GLENWOOD       FOG       48  48 100 S6        29.95F VSB 1/4
APPLETON       CLEAR     48  46  93 S3        29.95F FOG
BENSON           N/A     46  46 100 SW6       29.96F FOG
ORTONVILLE     CLEAR     46  45  93 W5        29.94F
MADISON        CLEAR     48  46  93 SW6       29.96F
WILLMAR        FAIR      52  48  87 SW5       29.98F FOG
$$
MNZ033>034-036-042>043-049>051-058-059-231000-
   Central Minnesota

CITY           SKY/WX    TMP DP  RH WIND       PRES   REMARKS
ST CLOUD       CLOUDY    54  51  90 S5        29.96S FOG
SAUK CENTRE    FOG       47  47  99 CALM      29.96S VSB 1/4
PAYNESVILLE    MOCLDY    49  50 100 SW5       29.97S FOG
AITKIN         MIX PCPN  52  46  82 S8        29.93F
PINE RIVER     CLOUDY    50  50 100 SE3       29.96F FOG
BRAINERD       CLOUDY    49  49 100 S5        29.95S
STAPLES        FOG       52  52 100 S5        29.94S VSB 1/4
LONG PRAIRIE   CLOUDY    52  52 100 S3        29.95F FOG
LITTLE FALLS   CLOUDY    50  48  93 SE3       29.95F FOG
LITCHFIELD     CLOUDY    55  55 100 SW3       29.98S
BUFFALO        CLOUDY    52  50  92 S3        29.99S
MAPLE LAKE     RAIN      54  53  97 S3        29.98S
$$
MNZ037-044-045-052-053-231000-
   East Central Minnesota

CITY           SKY/WX    TMP DP  RH WIND       PRES   REMARKS
PRINCETON      LGT RAIN  52  50  93 S5        29.97S
MORA           LGT RAIN  46  43  87 CALM      29.98F
CAMBRIDGE      LGT RAIN  52  45  76 S3        29.96F
RUSH CITY      LGT RAIN  49  46  86 S6        29.98F
MOOSE LAKE     DRIZZLE   48  43  81 S3        29.95F
HINCKLEY       RAIN      48  45  87 S6        29.98S
CLOQUET        CLOUDY    52  39  62 S8        29.96F
MCGREGOR       CLOUDY    48  46  93 S6        29.95F
$$
MNZ071>073-080-081-089-090-097-098-231000-
   Southwest Minnesota

CITY           SKY/WX    TMP DP  RH WIND       PRES   REMARKS
MONTEVIDEO     CLEAR     48  48 100 SW5       29.98S
GRANITE FALLS  CLEAR     47  47  98 S5        29.99F FOG
CANBY          CLEAR     50  48  92 SW12      29.98S
MARSHALL       CLEAR     50  45  81 W13       29.97F
REDWOOD FALLS  PTCLDY    51  50  96 SW5       29.98F
OLIVIA         PTCLDY    52  50  93 SW5       29.97F FOG
PIPESTONE      FOG       52  50  93 W7        30.00F VSB 1/4
WINDOM         MOCLDY    54  52  94 W7        30.00F
WORTHINGTON    CLOUDY    52  50  93 W7        30.02F VSB 3/4
JACKSON        CLOUDY    55  54  94 W8        30.00F
TRACY          PTCLDY    51  50  96 SW10      29.99S
SLAYTON        CLOUDY    51  51  99 CALM      30.01S
$$
MNZ065>067-074>077-082>085-091>093-231000-
   South Central Minnesota

CITY           SKY/WX    TMP DP  RH WIND       PRES   REMARKS
MANKATO        CLOUDY    54  46  76 S8        30.00S
NEW ULM        CLOUDY    55  55 100 W6        29.99S
ST JAMES       CLOUDY    57  55  94 W3        30.01S
FAIRMONT       CLOUDY    54  48  82 S9        30.00F
GLENCOE        CLOUDY    55  54  98 S7        29.98S
FARIBAULT      DRIZZLE   50  48  93 S6        30.01F
OWATONNA       RAIN      50  46  87 S13G20    30.01F
WASECA         LGT RAIN  50  45  81 S9        30.03S
ALBERT LEA     LGT RAIN  52  46  82 S8        30.02F
$$
MNZ078>079-086>088-094>096-231000-
   Southeast Minnesota

CITY           SKY/WX    TMP DP  RH WIND       PRES   REMARKS
ROCHESTER      CLOUDY    50  42  74 S13G21    30.05F
STANTON        CLOUDY    51  47  87 S8        30.00F
DODGE CENTER   CLOUDY    52  43  71 S15       30.02F
WINONA         LGT RAIN  50  43  76 S5        30.07F
AUSTIN         CLOUDY    52  43  71 S10       30.04F
PRESTON        LGT RAIN  47  43  87 S12G17    30.07F
$$
ABBREVIATIONS USED IN REMARKS
   TC - TEMPERATURES IN CELSIUS
  WCI - WIND CHILL INDEX
   HX - HEAT INDEX
  VSB - VISIBILITY
$$



USA.gov is the U.S. government's official web portal to all federal, state and local government web resources and services.